Tracking 22287 objects as of 27-Jan-2021
HD Live streaming from Space Station
objects crossing your sky now

STARLINK-1337

Track STARLINK-1337 now!
10-day predictions
STARLINK-1337 is classified as:


NORAD ID: 45582
Int'l Code: 2020-025BD
Perigee: 553.9 km
Apogee: 555.5 km
Inclination: 53.0 °
Period: 95.6 minutes
Semi major axis: 6925 km
RCS: Unknown
Launch date: April 22, 2020
Source: United States (US)
Launch site: AIR FORCE EASTERN TEST RANGE (AFETR)
aabbcc
Your satellite tracking list
Your tracking list is empty




NASA's NSSDC Master Catalog

Two Line Element Set (TLE):
1 45582U 20025BD  21027.15288315  .00026072  00000-0  17682-2 0  9991
2 45582  53.0021 180.3083 0001126 111.6312 248.4796 15.06284694 43423
Source of the keplerian elements: AFSPC